This is the latest recevied weather packets stored in our database for station/object KK7MLS-13. If no packets are shown the sender has not sent any weather packets the latest 10 day(s).
| Time | Temp. | Humidity | Pressure | Rain* | Wind** | Luminosity | Snow |
|---|---|---|---|---|---|---|---|
| 1777746035 | 12.78° C | 81% | 1015.9 hPa | 0 mm | - | 139 W/m² | - |
| 1777745733 | 12.78° C | 80% | 1016 hPa | 0 mm | - | 91 W/m² | - |
| 1777745432 | 12.78° C | 80% | 1016 hPa | 0 mm | - | 94 W/m² | - |
| 1777745129 | 12.78° C | 80% | 1016.1 hPa | 0 mm | - | 84 W/m² | - |
| 1777744825 | 12.78° C | 80% | 1016.1 hPa | 0 mm | - | 93 W/m² | - |
| 1777744519 | 12.78° C | 80% | 1016.1 hPa | 0 mm | - | 99 W/m² | - |
| 1777744216 | 13.33° C | 78% | 1016.1 hPa | 0 mm | - | 78 W/m² | - |
| 1777743913 | 12.78° C | 81% | 1016.3 hPa | 0 mm | - | 110 W/m² | - |
| 1777743609 | 12.22° C | 81% | 1016.4 hPa | 0 mm | - | 187 W/m² | - |
| 1777743307 | 12.22° C | 81% | 1016.6 hPa | 0 mm | - | 118 W/m² | - |
| 1777743005 | 12.22° C | 82% | 1016.6 hPa | 0 mm | - | 99 W/m² | - |
| 1777742702 | 12.22° C | 80% | 1016.6 hPa | 0 mm | - | 106 W/m² | - |
| 1777742398 | 12.78° C | 80% | 1016.6 hPa | 0 mm | - | 100 W/m² | - |
| 1777742093 | 12.78° C | 82% | 1016.6 hPa | 0 mm | - | 124 W/m² | - |
| 1777741791 | 12.22° C | 82% | 1016.4 hPa | 0 mm | - | 127 W/m² | - |
| 1777741488 | 12.22° C | 82% | 1016.2 hPa | 0 mm | - | 127 W/m² | - |
| 1777741183 | 12.22° C | 82% | 1016.3 hPa | 0 mm | - | 112 W/m² | - |
| 1777740881 | 12.22° C | 81% | 1016.3 hPa | 0 mm | - | 116 W/m² | - |
| 1777740578 | 12.22° C | 83% | 1016.4 hPa | 0 mm | - | 101 W/m² | - |
| 1777740274 | 12.22° C | 81% | 1016.5 hPa | 0 mm | - | 98 W/m² | - |
| 1777739971 | 12.22° C | 82% | 1016.4 hPa | 0 mm | - | 107 W/m² | - |
| 1777739667 | 11.67° C | 83% | 1016.4 hPa | 0 mm | - | 114 W/m² | - |
| 1777739365 | 11.67° C | 83% | 1016.4 hPa | 0 mm | - | 110 W/m² | - |
| 1777739062 | 11.67° C | 83% | 1016.5 hPa | 0 mm | - | 90 W/m² | - |
| 1777738759 | 11.67° C | 83% | 1016.6 hPa | 0 mm | - | 86 W/m² | - |
* Rain latest hour (hover to see other rain measurements)
** Current wind speed in m/s (hover to see current wind gust speed)